Weather History for Joplin, MO

Change the Weather History Date:

Thursday, October 3, 2013

  Actual Average Record
Temperature  
Mean Temperature 78 °F 64 °F  
Max Temperature 86 °F 75 °F 92 °F (2006)
Min Temperature 70 °F 52 °F 32 °F (1987)
Degree Days  
Heating Degree Days 0 4  
Month to date heating degree days 0 12  
Since 1 July heating degree days 11 54  
Cooling Degree Days 13 3  
Month to date cooling degree days 33 9  
Year to date cooling degree days 1554 1651  
Growing Degree Days 27 (Base 50)    
Moisture  
Dew Point 67 °F    
Average Humidity 74    
Maximum Humidity 90    
Minimum Humidity 58    
Precipitation  
Precipitation 0.00 in 0.13 in 2.92 in (1990)
Month to date precipitation 0.00 0.40  
Year to date precipitation 35.46 36.32  
Sea Level Pressure  
Sea Level Pressure 29.85 in    
Wind  
Wind Speed 13 mph (South)    
Max Wind Speed 23 mph    
Max Gust Speed 29 mph    
Visibility 10 miles    
Events      
T = Trace of Precipitation, MM = Missing Value Source: NWS Daily Summary

Daily Weather History Graph

Daily Weather History Graph

Search for Another Location

Airport:

Trip Planner

Search our weather history database for the weather conditions in past years. The results will help you decide how hot, cold, wet, or windy it might be!

Date:

Astronomy

Oct. 03, 2013 Rise Set
Actual Time 7:15 AM CDT 6:57 PM CDT
Civil Twilight 6:49 AM CDT 7:23 PM CDT
Nautical Twilight 6:19 AM CDT 7:53 PM CDT
Astronomical Twilight 5:48 AM CDT 8:24 PM CDT
Moon 5:50 AM CDT (10/3) 6:06 PM CDT (10/3)
Length of Visible Light 12h 34m
Length of Day
11h 42m
Waning Crescent, 2% of the Moon is Illuminated
Oct 3
Waning Crescent
Oct 4
New
Oct 11
First Quarter
Oct 18
Full
Oct 26
Last Quarter

Hourly Weather History & Observations

Time (CDT) Temp. Heat Index Dew Point Humidity Pressure Visibility Wind Dir Wind Speed Gust Speed Precip Events Conditions
12:53 AM 70.0 °F - 66.9 °F 90% 29.90 in 10.0 mi SSE 9.2 mph - N/A   Clear
1:53 AM 70.0 °F - 66.9 °F 90% 29.89 in 10.0 mi SSE 11.5 mph - N/A   Partly Cloudy
2:53 AM 70.0 °F - 66.0 °F 87% 29.89 in 10.0 mi SSE 10.4 mph - N/A   Clear
3:53 AM 70.0 °F - 66.0 °F 87% 29.89 in 10.0 mi SSE 10.4 mph - N/A   Partly Cloudy
4:53 AM 70.0 °F - 66.9 °F 90% 29.88 in 10.0 mi SSE 10.4 mph - N/A   Partly Cloudy
5:53 AM 70.0 °F - 66.9 °F 90% 29.88 in 10.0 mi SSE 10.4 mph - N/A   Clear
6:53 AM 70.0 °F - 66.0 °F 87% 29.88 in 10.0 mi SSE 9.2 mph - N/A   Clear
7:53 AM 71.1 °F - 66.9 °F 87% 29.88 in 10.0 mi South 11.5 mph - N/A   Clear
8:53 AM 73.0 °F - 66.9 °F 81% 29.90 in 10.0 mi South 13.8 mph - N/A   Clear
9:53 AM 77.0 °F - 68.0 °F 74% 29.89 in 10.0 mi South 16.1 mph 23.0 mph N/A   Partly Cloudy
10:53 AM 80.1 °F 82.7 °F 68.0 °F 67% 29.89 in 10.0 mi South 16.1 mph 26.5 mph N/A   Clear
11:53 AM 82.0 °F 85.5 °F 69.1 °F 65% 29.87 in 10.0 mi South 15.0 mph - N/A   Clear
12:53 PM 82.9 °F 86.5 °F 69.1 °F 63% 29.86 in 10.0 mi South 15.0 mph 27.6 mph N/A   Mostly Cloudy
1:53 PM 84.9 °F 88.8 °F 69.1 °F 59% 29.83 in 10.0 mi South 16.1 mph 25.3 mph N/A   Mostly Cloudy
2:53 PM 82.9 °F 85.8 °F 68.0 °F 60% 29.82 in 10.0 mi South 15.0 mph - N/A   Scattered Clouds
3:53 PM 82.9 °F 85.4 °F 66.9 °F 58% 29.81 in 10.0 mi South 15.0 mph 27.6 mph N/A   Scattered Clouds
4:53 PM 82.9 °F 85.0 °F 66.0 °F 56% 29.80 in 10.0 mi South 16.1 mph 24.2 mph N/A   Scattered Clouds
5:53 PM 82.0 °F 84.1 °F 66.0 °F 58% 29.80 in 10.0 mi South 13.8 mph 23.0 mph N/A   Partly Cloudy
6:53 PM 79.0 °F - 66.0 °F 64% 29.80 in 10.0 mi South 11.5 mph - N/A   Clear
7:53 PM 75.9 °F - 64.9 °F 69% 29.81 in 10.0 mi SSE 12.7 mph - N/A   Clear
8:53 PM 75.0 °F - 64.9 °F 71% 29.82 in 10.0 mi SSE 11.5 mph 23.0 mph N/A   Clear
9:53 PM 73.9 °F - 64.9 °F 73% 29.83 in 10.0 mi South 10.4 mph - N/A   Clear
11:53 PM 72.0 °F - 66.0 °F 81% 29.84 in 10.0 mi SSE 12.7 mph - N/A   Clear